Miscellaneous Local Product
Issued by NWS Hastings, NE

Home | Current Version | Previous Version | Graphics & Text | Print | Product List | Glossary On
Versions: 1 2 3 4 5 6 7 8 9 10 11 12 13 14 15 16 17 18 19 20 21 22 23 24 25 26 27 28 29 30 31 32 33 34 35 36 37 38 39 40 41 42 43 44 45 46 47 48 49 50
969
AXUS43 KGID 281202
MISGRI

GID CWA HOURLY WEATHER ROUNDUP
NATIONAL WEATHER SERVICE HASTINGS NE
700 AM CDT TUE MAR 28 2017

NOTE: "FAIR" INDICATES FEW OR NO CLOUDS BELOW 12,000 FEET WITH NO
SIGNIFICANT WEATHER AND/OR OBSTRUCTIONS TO VISIBILITY.

...SOUTH CENTRAL NEBRASKA...

CITY           SKY/WX    TMP DP  RH WIND       PRES   REMARKS
GRAND ISLAND   FOG       32  32 100 CALM      30.04R VSB 1/4
HASTINGS       CLOUDY    40  38  93 E6        30.05R
KEARNEY        CLOUDY    39  37  93 E3        30.03R
ORD            CLOUDY    41  38  89 S5        30.02R FOG
YORK           FOG       32  32 100 CALM      30.04S VSB 1/2
AURORA         FOG       32  32 100 E3        30.04R VSB 1/4
LEXINGTON      FOG       42  40  95 E6        30.00R VSB 1/4
HOLDREGE       FOG       42  42  97 SE6       30.01R VSB 1/4
HEBRON         CLEAR     36  35  99 CALM      30.04R FOG

...NEBRASKA PANHANDLE...

CITY           SKY/WX    TMP DP  RH WIND       PRES   REMARKS
CHADRON        LGT RAIN  43  41  93 NE6       29.94S
ALLIANCE       RAIN      45  43  93 SE14      29.92R FOG
SCOTTSBLUFF    LGT RAIN  46  43  89 E16       29.89R
SIDNEY         LGT RAIN  44  42  93 SE12      29.88S

...WESTERN AND NORTH CENTRAL NEBRASKA...

CITY           SKY/WX    TMP DP  RH WIND       PRES   REMARKS
VALENTINE      CLOUDY    45  42  89 E5        29.99S
AINSWORTH      CLOUDY    43  43  97 CALM      29.99S
ONEILL         CLOUDY    39  38  99 SE5       30.03S FOG
BROKEN BOW     FOG       41  40  96 E7        30.00R VSB 1/2
IMPERIAL       CLOUDY    45  43  93 E12       29.92S
NORTH PLATTE   CLOUDY    45  43  93 SE9       29.96R
MCCOOK         CLOUDY    45  44  97 E9        29.94F FOG

...EASTERN NEBRASKA...

CITY           SKY/WX    TMP DP  RH WIND       PRES   REMARKS
NORFOLK        FOG       33  31  92 CALM      30.05R VSB 1/2
SO SIOUX CITY  FOG       28  28 100 CALM      30.08R VSB 1/4
TEKAMAH        FOG       33  32  96 NW8       30.07R VSB 1/2 WCI  26
COLUMBUS       MOCLDY    32  28  86 CALM      30.06R VSB 1/4
ALBION         FOG       37  35  94 CALM      30.05R VSB 1
OMAHA EPPLEY   CLOUDY    39  35  86 NW5       30.07R
OFFUTT AFB     CLOUDY    42  38  86 NE6       30.06R
MILLARD        CLOUDY    45  41  85 CALM      30.07R
LINCOLN        PTCLDY    33  31  92 CALM      30.07R
NEBRASKA CITY  CLOUDY    43  41  93 N3        30.05R
BEATRICE       CLEAR     36  35  99 NE5       30.04R FOG     WCI  32
FALLS CITY     CLOUDY    46  43  89 NE6       30.03S

...NORTHERN KANSAS...

CITY           SKY/WX    TMP DP  RH WIND       PRES   REMARKS
GOODLAND       CLOUDY    44  44 100 SE15G23   29.88S FOG
HILL CITY      CLOUDY    45  45 100 SE9       29.97F FOG
NORTON         FOG       43  41  93 SE7       29.97S VSB 3/4
PHILLIPSBURG   FOG       41  41 100 E6        30.01R VSB 1/4
HAYS             N/A     43  43 100 E7        29.98F FOG
RUSSELL        CLOUDY    42  41  96 S5        29.98S FOG
CONCORDIA      CLOUDY    40  40 100 E3        30.02R FOG
SALINA         CLOUDY    49  46  90 S5        30.02R
TOPEKA         PTCLDY    47  44  90 CALM      30.03R



USA.gov is the U.S. government's official web portal to all federal, state and local government web resources and services.